Location: Kawakawa
(35.3830°S, 174.0670°E)
Time: 22:44:30
(UTC+12:00)

Cosmos 2237 - Pass Details

Date: 24 January 2019
Orbit: 846 x 856 km, 70.8° (Epoch: 19 April)

Event Time Altitude Azimuth Distance (km) Brightness Sun altitude
Exits shadow 22:25:21 29° 15° (NNE) 1,539 5.1 -19.2°
Maximum altitude 22:28:01 50° 74° (ENE) 1,088 4.4 -19.6°
Drops below altitude 10° 22:33:34 10° 147° (SSE) 2,506 6.8 -20.4°
Sets 22:36:06 0° 152° (SSE) 3,448 7.6 -20.8°
